BAW950M EGLL-LDSP

Flight info

Callsign BAW950M
Flight time 2h 8m
Altitude 35000
Route DET2G DET L6 DVR UL9 KONAN DCT KOK DCT PITES DCT EDISA DCT PICWI DCT UTABA DCT BEMKI DCT ELMEM DCT DIRAB DCT PEVAL DCT SAL SAL1Z
Aircraft A320/M-SDE3FGIJ1KRWXY/SB1

Departure

Time 2026-05-04 11:25
Airport London Heathrow Airport (EGLL)

Arrival

Time 2026-05-04 13:33
Airport Split Saint Jerome Airport (LDSP)
Time Latitude Longitude Altitude Speed Heading
2026-05-04 11:01 51.47404 -0.48891 86 ft 0 kts 179°
2026-05-04 11:10 51.47417 -0.48891 86 ft 3 kts 179°
2026-05-04 11:12 51.47509 -0.48937 86 ft 0 kts 134°
2026-05-04 11:13 51.47505 -0.48929 86 ft 2 kts 131°
2026-05-04 11:13 51.47495 -0.48905 89 ft 3 kts 118°
2026-05-04 11:14 51.47492 -0.48892 88 ft 4 kts 111°
2026-05-04 11:14 51.47486 -0.48781 90 ft 6 kts 89°
2026-05-04 11:16 51.47032 -0.48470 88 ft 18 kts 180°
2026-05-04 11:16 51.46904 -0.48469 91 ft 19 kts 180°
2026-05-04 11:16 51.46791 -0.48469 86 ft 10 kts 180°
2026-05-04 11:17 51.46713 -0.48469 86 ft 12 kts 180°
2026-05-04 11:17 51.46653 -0.48403 86 ft 13 kts 92°
2026-05-04 11:19 51.46657 -0.46923 90 ft 25 kts 90°
2026-05-04 11:19 51.46659 -0.46639 90 ft 26 kts 89°
2026-05-04 11:19 51.46660 -0.46339 89 ft 28 kts 89°
2026-05-04 11:19 51.46661 -0.46028 86 ft 29 kts 90°
2026-05-04 11:20 51.46662 -0.45717 86 ft 22 kts 91°
2026-05-04 11:20 51.46662 -0.45533 86 ft 16 kts 90°
2026-05-04 11:20 51.46662 -0.45344 86 ft 18 kts 89°
2026-05-04 11:20 51.46664 -0.45135 86 ft 20 kts 89°
2026-05-04 11:22 51.46497 -0.44078 88 ft 7 kts 239°
2026-05-04 11:22 51.46493 -0.44133 88 ft 0 kts 269°
2026-05-04 11:24 51.46484 -0.46668 91 ft 156 kts 269°
2026-05-04 11:25 51.46471 -0.48459 557 ft 159 kts 272°
2026-05-04 11:25 51.46453 -0.50265 1089 ft 164 kts 270°
2026-05-04 11:25 51.46313 -0.52118 1466 ft 178 kts 249°
2026-05-04 11:26 51.44249 -0.54536 2246 ft 201 kts 179°
2026-05-04 11:27 51.35352 -0.42469 6423 ft 271 kts 137°
2026-05-04 11:28 51.33986 -0.40357 7187 ft 274 kts 137°
2026-05-04 11:28 51.32767 -0.37994 7937 ft 279 kts 121°
2026-05-04 11:28 51.32041 -0.35099 8699 ft 284 kts 103°
2026-05-04 11:28 51.31871 -0.31969 9429 ft 290 kts 92°
2026-05-04 11:29 51.31839 -0.28727 10125 ft 294 kts 92°
2026-05-04 11:29 51.31802 -0.25343 10356 ft 316 kts 92°
2026-05-04 11:29 51.31757 -0.21710 10475 ft 338 kts 92°
2026-05-04 11:29 51.31705 -0.17879 10849 ft 349 kts 93°
2026-05-04 11:31 51.31298 0.10279 15034 ft 372 kts 93°
2026-05-04 11:33 51.30778 0.39903 18999 ft 391 kts 93°
2026-05-04 11:33 51.30692 0.44266 19483 ft 395 kts 94°
2026-05-04 11:33 51.30604 0.48680 19969 ft 398 kts 94°
2026-05-04 11:34 51.30520 0.53077 20427 ft 403 kts 94°
2026-05-04 11:34 51.30419 0.57572 20892 ft 406 kts 96°
2026-05-04 11:34 51.29977 0.62045 21347 ft 408 kts 106°
2026-05-04 11:34 51.29194 0.66431 21788 ft 410 kts 108°
2026-05-04 11:35 51.28387 0.70820 22210 ft 414 kts 109°
2026-05-04 11:35 51.27570 0.75243 22630 ft 417 kts 109°
2026-05-04 11:35 51.26756 0.79650 23053 ft 420 kts 109°
2026-05-04 11:35 51.25927 0.84141 23464 ft 423 kts 109°
2026-05-04 11:36 51.25095 0.88667 23812 ft 426 kts 109°
2026-05-04 11:36 51.24259 0.93221 24166 ft 429 kts 109°
2026-05-04 11:36 51.23414 0.97792 24510 ft 430 kts 109°
2026-05-04 11:36 51.22836 1.00896 24730 ft 432 kts 109°
2026-05-04 11:37 51.21974 1.05502 25065 ft 434 kts 109°
2026-05-04 11:37 51.21122 1.10063 25403 ft 436 kts 109°
2026-05-04 11:37 51.20256 1.14704 25742 ft 437 kts 109°
2026-05-04 11:37 51.19384 1.19362 26078 ft 439 kts 109°
2026-05-04 11:38 51.18503 1.24034 26410 ft 441 kts 110°
2026-05-04 11:38 51.17616 1.28721 26764 ft 442 kts 110°
2026-05-04 11:38 51.16734 1.33429 27106 ft 445 kts 108°
2026-05-04 11:38 51.16148 1.38288 27436 ft 449 kts 99°
2026-05-04 11:39 51.15903 1.43269 27723 ft 452 kts 97°
2026-05-04 11:39 51.15674 1.48268 28071 ft 452 kts 97°
2026-05-04 11:40 51.14223 1.77859 30729 ft 443 kts 98°
2026-05-04 11:41 51.13975 1.82750 31105 ft 443 kts 99°
2026-05-04 11:41 51.13726 1.87634 31473 ft 442 kts 99°
2026-05-04 11:41 51.13474 1.92524 31809 ft 442 kts 99°
2026-05-04 11:41 51.13217 1.97401 32152 ft 442 kts 99°
2026-05-04 11:42 51.12960 2.02277 32504 ft 442 kts 100°
2026-05-04 11:42 51.12703 2.07153 32891 ft 442 kts 100°
2026-05-04 11:42 51.12443 2.12027 33264 ft 442 kts 100°
2026-05-04 11:42 51.12182 2.16898 33628 ft 441 kts 100°
2026-05-04 11:43 51.11920 2.21698 33975 ft 441 kts 101°
2026-05-04 11:43 51.11652 2.26572 34252 ft 441 kts 101°
2026-05-04 11:43 51.11382 2.31432 34509 ft 441 kts 100°
2026-05-04 11:43 51.11114 2.36292 34776 ft 441 kts 100°
2026-05-04 11:44 51.10845 2.41164 34969 ft 442 kts 100°
2026-05-04 11:44 51.10287 2.50994 35020 ft 452 kts 100°
2026-05-04 11:45 51.09652 2.61030 35018 ft 455 kts 105°
2026-05-04 11:45 51.07746 2.70447 35017 ft 443 kts 122°
2026-05-04 11:46 51.04908 2.79055 35017 ft 442 kts 123°
2026-05-04 11:46 51.02053 2.87718 35012 ft 443 kts 123°
2026-05-04 11:47 50.99192 2.96402 35019 ft 444 kts 123°
2026-05-04 11:47 50.96318 3.05091 35014 ft 445 kts 123°
2026-05-04 11:48 50.93425 3.13781 35012 ft 445 kts 123°
2026-05-04 11:48 50.90548 3.22394 35005 ft 445 kts 123°
2026-05-04 11:49 50.87644 3.31058 34985 ft 445 kts 123°
2026-05-04 11:49 50.84733 3.39723 34982 ft 446 kts 123°
2026-05-04 11:50 50.81808 3.48391 34985 ft 447 kts 124°
2026-05-04 11:50 50.78871 3.57058 35002 ft 447 kts 124°
2026-05-04 11:51 50.75934 3.65705 35014 ft 447 kts 123°
2026-05-04 11:51 50.72996 3.74337 35000 ft 447 kts 124°
2026-05-04 11:52 50.70059 3.82921 34996 ft 447 kts 124°
2026-05-04 11:52 50.67096 3.91553 35004 ft 448 kts 124°
2026-05-04 11:53 50.64125 4.00179 35011 ft 448 kts 124°
2026-05-04 11:53 50.61141 4.08808 35019 ft 448 kts 124°
2026-05-04 11:55 50.49182 4.43128 35009 ft 446 kts 124°
2026-05-04 11:56 50.46181 4.51649 35010 ft 446 kts 125°
2026-05-04 11:56 50.43175 4.60164 35013 ft 446 kts 124°
2026-05-04 11:57 50.40180 4.68634 35010 ft 448 kts 125°
2026-05-04 11:57 50.37159 4.77171 35014 ft 447 kts 125°
2026-05-04 11:58 50.34145 4.85654 35005 ft 446 kts 125°
2026-05-04 11:58 50.31107 4.94128 34994 ft 447 kts 125°
2026-05-04 11:59 50.28065 5.02606 35008 ft 447 kts 125°
2026-05-04 11:59 50.25018 5.11084 34998 ft 447 kts 125°
2026-05-04 12:00 50.21960 5.19549 35006 ft 447 kts 125°
2026-05-04 12:00 50.18901 5.28004 35016 ft 448 kts 125°
2026-05-04 12:01 50.15833 5.36455 35023 ft 447 kts 126°
2026-05-04 12:02 50.05045 5.65933 35005 ft 449 kts 126°
2026-05-04 12:03 50.01935 5.74362 35029 ft 449 kts 126°
2026-05-04 12:03 49.98816 5.82778 35033 ft 449 kts 126°
2026-05-04 12:04 49.95698 5.91176 35039 ft 449 kts 126°
2026-05-04 12:04 49.92576 5.99593 35026 ft 449 kts 126°
2026-05-04 12:05 49.89443 6.07981 35030 ft 449 kts 126°
2026-05-04 12:05 49.86304 6.16355 35035 ft 449 kts 126°
2026-05-04 12:06 49.83175 6.24664 35041 ft 450 kts 126°
2026-05-04 12:06 49.80023 6.33039 35044 ft 450 kts 126°
2026-05-04 12:07 49.76861 6.41408 35009 ft 449 kts 126°
2026-05-04 12:07 49.73693 6.49743 35012 ft 450 kts 126°
2026-05-04 12:08 49.70503 6.57980 35003 ft 449 kts 127°
2026-05-04 12:08 49.67200 6.66170 35012 ft 449 kts 128°
2026-05-04 12:09 49.63872 6.74344 35011 ft 449 kts 127°
2026-05-04 12:09 49.60558 6.82544 34992 ft 450 kts 127°
2026-05-04 12:10 49.57269 6.90700 35003 ft 451 kts 127°
2026-05-04 12:10 49.53944 6.98901 35003 ft 452 kts 127°
2026-05-04 12:11 49.50610 7.07104 35018 ft 452 kts 127°
2026-05-04 12:11 49.47267 7.15284 35026 ft 451 kts 127°
2026-05-04 12:12 49.43921 7.23459 35017 ft 452 kts 127°
2026-05-04 12:12 49.40592 7.31569 35023 ft 452 kts 127°
2026-05-04 12:14 49.27107 7.64166 35000 ft 453 kts 128°
2026-05-04 12:15 49.23744 7.72236 35012 ft 453 kts 128°
2026-05-04 12:15 49.20348 7.80353 35026 ft 453 kts 128°
2026-05-04 12:16 49.16939 7.88469 35029 ft 453 kts 128°
2026-05-04 12:16 49.13526 7.96571 35030 ft 453 kts 128°
2026-05-04 12:17 49.10107 8.04681 35009 ft 454 kts 128°
2026-05-04 12:17 49.06676 8.12784 35015 ft 455 kts 128°
2026-05-04 12:18 49.03238 8.20877 35018 ft 455 kts 128°
2026-05-04 12:18 48.99754 8.28935 35019 ft 453 kts 132°
2026-05-04 12:19 48.95442 8.35655 35025 ft 445 kts 142°
2026-05-04 12:19 48.91133 8.42468 35028 ft 448 kts 138°
2026-05-04 12:20 48.86859 8.49358 35024 ft 448 kts 138°
2026-05-04 12:20 48.82578 8.56238 35026 ft 448 kts 139°
2026-05-04 12:21 48.78288 8.63103 35027 ft 448 kts 139°
2026-05-04 12:21 48.73999 8.69961 35022 ft 448 kts 138°
2026-05-04 12:22 48.69706 8.76804 34999 ft 448 kts 138°
2026-05-04 12:22 48.65401 8.83636 35002 ft 448 kts 138°
2026-05-04 12:23 48.61124 8.90415 35005 ft 449 kts 138°
2026-05-04 12:23 48.56806 8.97250 35012 ft 449 kts 138°
2026-05-04 12:24 48.52486 9.04060 35015 ft 450 kts 138°
2026-05-04 12:24 48.48151 9.10859 34998 ft 450 kts 138°
2026-05-04 12:25 48.43808 9.17656 34995 ft 450 kts 138°
2026-05-04 12:25 48.39456 9.24464 34998 ft 451 kts 138°
2026-05-04 12:26 48.35100 9.31263 35009 ft 451 kts 138°
2026-05-04 12:26 48.30752 9.38058 34827 ft 446 kts 138°
2026-05-04 12:27 48.28660 9.41408 35003 ft 435 kts 137°
2026-05-04 12:27 48.26595 9.44739 35049 ft 437 kts 137°
2026-05-04 12:27 48.22480 9.51396 35050 ft 437 kts 137°
2026-05-04 12:28 48.18325 9.58069 35051 ft 438 kts 137°
2026-05-04 12:28 48.14169 9.64729 35058 ft 437 kts 137°
2026-05-04 12:29 48.10008 9.71387 35051 ft 437 kts 137°
2026-05-04 12:29 48.05848 9.78036 35055 ft 438 kts 137°
2026-05-04 12:30 48.01687 9.84672 35031 ft 437 kts 137°
2026-05-04 12:30 47.98220 9.90160 35031 ft 436 kts 137°
2026-05-04 12:31 47.93371 9.97805 35033 ft 436 kts 137°
2026-05-04 12:31 47.89898 10.03273 35031 ft 436 kts 137°
2026-05-04 12:32 47.83629 10.13064 35034 ft 436 kts 140°
2026-05-04 12:33 47.79081 10.19213 35015 ft 446 kts 142°
2026-05-04 12:33 47.74391 10.25280 35010 ft 447 kts 142°
2026-05-04 12:34 47.69690 10.31346 35014 ft 447 kts 142°
2026-05-04 12:34 47.65042 10.37404 35019 ft 447 kts 142°
2026-05-04 12:35 47.60369 10.43503 35024 ft 447 kts 142°
2026-05-04 12:35 47.55686 10.49579 35030 ft 447 kts 142°
2026-05-04 12:36 47.51003 10.55646 34998 ft 447 kts 142°
2026-05-04 12:36 47.46330 10.61693 35004 ft 446 kts 142°
2026-05-04 12:37 47.41656 10.67719 35005 ft 446 kts 142°
2026-05-04 12:37 47.36983 10.73714 34999 ft 444 kts 142°
2026-05-04 12:38 47.32310 10.79701 34996 ft 445 kts 142°
2026-05-04 12:38 47.27627 10.85691 34985 ft 446 kts 141°
2026-05-04 12:39 47.22975 10.91625 34989 ft 445 kts 142°
2026-05-04 12:39 47.18288 10.97608 34997 ft 445 kts 142°
2026-05-04 12:40 47.13612 11.03547 34997 ft 445 kts 142°
2026-05-04 12:40 47.08918 11.09480 35021 ft 445 kts 142°
2026-05-04 12:41 47.04234 11.15413 35006 ft 445 kts 142°
2026-05-04 12:41 46.99553 11.21333 35015 ft 444 kts 142°
2026-05-04 12:42 46.94861 11.27231 35011 ft 444 kts 142°
2026-05-04 12:42 46.90199 11.33066 35031 ft 444 kts 142°
2026-05-04 12:43 46.85504 11.38934 35007 ft 443 kts 142°
2026-05-04 12:43 46.80805 11.44798 35004 ft 443 kts 142°
2026-05-04 12:44 46.76109 11.50661 34984 ft 445 kts 142°
2026-05-04 12:44 46.71402 11.56531 34994 ft 446 kts 142°
2026-05-04 12:45 46.66680 11.62374 34992 ft 446 kts 142°
2026-05-04 12:45 46.61941 11.68218 34995 ft 446 kts 142°
2026-05-04 12:46 46.57199 11.74062 34989 ft 447 kts 142°
2026-05-04 12:46 46.52501 11.79863 34990 ft 446 kts 142°
2026-05-04 12:47 46.47772 11.85675 34997 ft 446 kts 142°
2026-05-04 12:47 46.43028 11.91480 34997 ft 445 kts 142°
2026-05-04 12:48 46.38285 11.97268 35011 ft 445 kts 142°
2026-05-04 12:48 46.33531 12.03052 35011 ft 445 kts 142°
2026-05-04 12:49 46.28797 12.08831 34994 ft 446 kts 142°
2026-05-04 12:49 46.24045 12.14619 34999 ft 447 kts 142°
2026-05-04 12:50 46.19312 12.20333 34987 ft 446 kts 142°
2026-05-04 12:50 46.14517 12.26116 35084 ft 446 kts 142°
2026-05-04 12:51 46.09786 12.31824 35086 ft 446 kts 142°
2026-05-04 12:51 46.05027 12.37560 35084 ft 446 kts 142°
2026-05-04 12:52 46.00254 12.43298 35082 ft 448 kts 142°
2026-05-04 12:52 45.95449 12.49044 35091 ft 448 kts 142°
2026-05-04 12:53 45.90646 12.54764 35096 ft 449 kts 142°
2026-05-04 12:53 45.85841 12.60489 35078 ft 449 kts 142°
2026-05-04 12:54 45.81064 12.66173 35095 ft 449 kts 142°
2026-05-04 12:54 45.76251 12.71883 35082 ft 449 kts 142°
2026-05-04 12:55 45.71421 12.77595 35077 ft 450 kts 142°
2026-05-04 12:55 45.66587 12.83292 35097 ft 450 kts 142°
2026-05-04 12:56 45.61755 12.88986 35088 ft 450 kts 142°
2026-05-04 12:56 45.56915 12.94672 35088 ft 450 kts 142°
2026-05-04 12:57 45.52080 13.00343 35077 ft 450 kts 142°
2026-05-04 12:57 45.47240 13.05999 35090 ft 450 kts 142°
2026-05-04 12:58 45.42401 13.11646 35083 ft 450 kts 142°
2026-05-04 12:58 45.37547 13.17299 35079 ft 450 kts 142°
2026-05-04 12:59 45.32732 13.22900 35089 ft 450 kts 142°
2026-05-04 12:59 45.28172 13.29030 35093 ft 452 kts 136°
2026-05-04 13:00 45.23759 13.35408 35084 ft 453 kts 136°
2026-05-04 13:00 45.19340 13.41792 35093 ft 454 kts 136°
2026-05-04 13:01 45.14931 13.48136 35104 ft 454 kts 136°
2026-05-04 13:01 45.10498 13.54498 35103 ft 454 kts 136°
2026-05-04 13:02 45.06057 13.60849 35086 ft 454 kts 136°
2026-05-04 13:02 45.01610 13.67194 35099 ft 455 kts 136°
2026-05-04 13:03 44.97149 13.73561 35127 ft 455 kts 136°
2026-05-04 13:03 44.92685 13.79912 35131 ft 455 kts 136°
2026-05-04 13:04 44.88214 13.86250 35138 ft 456 kts 136°
2026-05-04 13:04 44.83733 13.92591 35132 ft 457 kts 136°
2026-05-04 13:05 44.79264 13.98887 35132 ft 457 kts 136°
2026-05-04 13:05 44.74767 14.05215 35127 ft 457 kts 136°
2026-05-04 13:06 44.70269 14.11546 35119 ft 458 kts 136°
2026-05-04 13:06 44.65760 14.17862 35109 ft 458 kts 136°
2026-05-04 13:07 44.61233 14.24178 35105 ft 459 kts 136°
2026-05-04 13:07 44.56700 14.30514 35116 ft 460 kts 136°
2026-05-04 13:08 44.52182 14.36814 35119 ft 461 kts 136°
2026-05-04 13:08 44.47625 14.43140 35128 ft 462 kts 136°
2026-05-04 13:09 44.43051 14.49477 35117 ft 462 kts 136°
2026-05-04 13:09 44.38472 14.55803 35132 ft 463 kts 136°
2026-05-04 13:10 44.33890 14.62122 35065 ft 463 kts 136°
2026-05-04 13:10 44.31601 14.65280 34795 ft 462 kts 136°
2026-05-04 13:10 44.29309 14.68438 33912 ft 468 kts 136°
2026-05-04 13:10 44.26980 14.71635 32997 ft 471 kts 136°
2026-05-04 13:11 44.24633 14.74849 32114 ft 473 kts 136°
2026-05-04 13:11 44.22299 14.78045 31572 ft 468 kts 136°
2026-05-04 13:11 44.19976 14.81223 30984 ft 465 kts 137°
2026-05-04 13:11 44.17669 14.84371 30398 ft 463 kts 137°
2026-05-04 13:12 44.15404 14.87457 29769 ft 461 kts 137°
2026-05-04 13:12 44.13123 14.90565 29194 ft 456 kts 137°
2026-05-04 13:12 44.10865 14.93641 28614 ft 452 kts 137°
2026-05-04 13:12 44.08625 14.96687 28044 ft 448 kts 137°
2026-05-04 13:13 44.06400 14.99707 27470 ft 445 kts 136°
2026-05-04 13:13 44.04190 15.02701 26918 ft 442 kts 136°
2026-05-04 13:13 44.01999 15.05676 26362 ft 439 kts 136°
2026-05-04 13:13 43.99823 15.08630 25820 ft 436 kts 136°
2026-05-04 13:14 43.97662 15.11563 25280 ft 433 kts 136°
2026-05-04 13:14 43.95513 15.14475 24772 ft 430 kts 136°
2026-05-04 13:14 43.93374 15.17364 24253 ft 428 kts 136°
2026-05-04 13:14 43.91195 15.20169 23761 ft 425 kts 138°
2026-05-04 13:15 43.88984 15.22880 23214 ft 423 kts 139°
2026-05-04 13:15 43.86771 15.25525 22749 ft 418 kts 140°
2026-05-04 13:15 43.84575 15.28133 22267 ft 414 kts 140°
2026-05-04 13:15 43.82401 15.30727 21787 ft 411 kts 140°
2026-05-04 13:16 43.80246 15.33317 21298 ft 409 kts 139°
2026-05-04 13:16 43.78137 15.35871 20816 ft 408 kts 139°
2026-05-04 13:16 43.76006 15.38461 20304 ft 406 kts 139°
2026-05-04 13:16 43.73891 15.41037 19796 ft 404 kts 139°
2026-05-04 13:17 43.71781 15.43611 19286 ft 403 kts 139°
2026-05-04 13:17 43.69697 15.46149 18872 ft 397 kts 139°
2026-05-04 13:17 43.67622 15.48669 18438 ft 394 kts 140°
2026-05-04 13:17 43.65577 15.51148 17951 ft 389 kts 140°
2026-05-04 13:18 43.63547 15.53601 17422 ft 386 kts 140°
2026-05-04 13:18 43.61536 15.56028 16893 ft 381 kts 140°
2026-05-04 13:18 43.59590 15.58373 16105 ft 371 kts 140°
2026-05-04 13:18 43.57699 15.60650 15620 ft 354 kts 139°
2026-05-04 13:19 43.55849 15.62876 15130 ft 351 kts 140°
2026-05-04 13:19 43.54610 15.64365 14802 ft 350 kts 139°
2026-05-04 13:19 43.52190 15.67275 14168 ft 347 kts 139°
2026-05-04 13:19 43.50368 15.69465 13667 ft 345 kts 139°
2026-05-04 13:20 43.48570 15.71625 13169 ft 342 kts 139°
2026-05-04 13:20 43.46778 15.73772 12693 ft 339 kts 139°
2026-05-04 13:20 43.45030 15.75861 12236 ft 336 kts 139°
2026-05-04 13:20 43.43273 15.77960 11763 ft 333 kts 139°
2026-05-04 13:21 43.41530 15.80044 11298 ft 331 kts 139°
2026-05-04 13:21 43.39800 15.82114 10838 ft 328 kts 139°
2026-05-04 13:21 43.38089 15.84158 10523 ft 322 kts 139°
2026-05-04 13:21 43.36426 15.86142 10397 ft 309 kts 139°
2026-05-04 13:22 43.34833 15.88042 10273 ft 299 kts 139°
2026-05-04 13:22 43.33292 15.89883 10136 ft 289 kts 139°
2026-05-04 13:22 43.31825 15.91743 9860 ft 285 kts 131°
2026-05-04 13:22 43.30698 15.93964 9554 ft 283 kts 117°
2026-05-04 13:23 43.29889 15.96421 9194 ft 282 kts 114°
2026-05-04 13:23 43.29099 15.98882 8845 ft 281 kts 114°
2026-05-04 13:23 43.28306 16.01334 8481 ft 281 kts 113°
2026-05-04 13:23 43.27511 16.03786 8126 ft 281 kts 113°
2026-05-04 13:24 43.26984 16.05409 7900 ft 281 kts 113°
2026-05-04 13:24 43.26193 16.07851 7569 ft 280 kts 113°
2026-05-04 13:24 43.25184 16.11087 7132 ft 278 kts 106°
2026-05-04 13:25 43.25857 16.16011 6497 ft 270 kts 48°
2026-05-04 13:25 43.26790 16.17122 6268 ft 268 kts 30°
2026-05-04 13:25 43.28479 16.18192 5917 ft 267 kts 22°
2026-05-04 13:25 43.30159 16.19164 5825 ft 257 kts 22°
2026-05-04 13:26 43.31784 16.20092 5657 ft 250 kts 22°
2026-05-04 13:26 43.33369 16.20993 5306 ft 243 kts 22°
2026-05-04 13:26 43.34897 16.21954 4853 ft 238 kts 31°
2026-05-04 13:26 43.36107 16.23391 4665 ft 225 kts 45°
2026-05-04 13:27 43.37206 16.24906 4383 ft 224 kts 43°
2026-05-04 13:27 43.38340 16.26367 4104 ft 223 kts 41°
2026-05-04 13:27 43.39483 16.27774 3888 ft 218 kts 41°
2026-05-04 13:27 43.40607 16.29141 3708 ft 213 kts 40°
2026-05-04 13:28 43.41699 16.30463 3597 ft 202 kts 40°
2026-05-04 13:28 43.42738 16.31704 3422 ft 194 kts 39°
2026-05-04 13:28 43.43738 16.32880 3190 ft 182 kts 39°
2026-05-04 13:28 43.44682 16.33993 3022 ft 179 kts 40°
2026-05-04 13:29 43.45627 16.35132 2755 ft 181 kts 41°
2026-05-04 13:29 43.46557 16.36266 2528 ft 182 kts 42°
2026-05-04 13:29 43.47502 16.37414 2258 ft 175 kts 41°
2026-05-04 13:29 43.48360 16.38442 2070 ft 157 kts 40°
2026-05-04 13:30 43.49318 16.39098 1798 ft 155 kts 10°
2026-05-04 13:30 43.50360 16.39445 1560 ft 152 kts
2026-05-04 13:30 43.51378 16.39763 1343 ft 150 kts
2026-05-04 13:30 43.52403 16.40066 1200 ft 149 kts
2026-05-04 13:31 43.53433 16.40045 1053 ft 148 kts 337°
2026-05-04 13:31 43.54299 16.39341 905 ft 143 kts 310°
2026-05-04 13:31 43.54806 16.38210 792 ft 139 kts 290°
2026-05-04 13:31 43.55223 16.36987 762 ft 142 kts 291°
2026-05-04 13:32 43.55534 16.35727 646 ft 136 kts 277°
2026-05-04 13:32 43.55641 16.34449 538 ft 133 kts 272°
2026-05-04 13:32 43.55638 16.33212 540 ft 129 kts 253°
2026-05-04 13:32 43.55185 16.32164 359 ft 130 kts 234°
2026-05-04 13:33 43.54645 16.31153 152 ft 131 kts 232°
2026-05-04 13:33 43.54133 16.30229 76 ft 94 kts 232°
2026-05-04 13:33 43.53905 16.29817 85 ft 29 kts 232°
2026-05-04 13:33 43.53788 16.29607 85 ft 24 kts 232°
2026-05-04 13:34 43.53716 16.29486 87 ft 10 kts 215°
2026-05-04 13:34 43.53696 16.29514 85 ft 5 kts 94°
2026-05-04 13:34 43.53692 16.29564 87 ft 5 kts 101°
2026-05-04 13:34 43.53691 16.29569 85 ft 1 kts 101°
2026-05-04 13:35 43.53686 16.29577 85 ft 1 kts 137°
2026-05-04 13:35 43.53660 16.29570 88 ft 5 kts 190°
2026-05-04 13:35 43.53652 16.29601 84 ft 5 kts 68°
2026-05-04 13:36 43.53677 16.29648 88 ft 7 kts 52°
2026-05-04 13:36 43.53710 16.29708 86 ft 9 kts 52°
2026-05-04 13:36 43.53749 16.29782 84 ft 7 kts 60°
2026-05-04 13:36 43.53740 16.29840 80 ft 6 kts 118°
2026-05-04 13:37 43.53727 16.29870 81 ft 3 kts 119°
2026-05-04 13:37 43.53726 16.29872 79 ft 0 kts 119°